Location: G�ppingen
(48.7089°N, 9.6563°E)
Time: 10:32:51
(UTC+02:00)

M-CUBED/EXP-1 PRIME - Pass Details

Date: 22 March 2019
Orbit: 430 x 671 km, 101.7° (Epoch: 20 April)

Event Time Altitude Azimuth Distance (km) Brightness Sun altitude
Rises 20:33:30 0° 20° (NNE) 2,922 ? -19.5°
Reaches altitude 10° 20:35:40 10° 21° (NNE) 2,039 ? -19.8°
Maximum altitude 20:40:08 82° 109° (ESE) 671 ? -20.4°
Drops below altitude 10° 20:44:44 10° 198° (SSW) 2,093 ? -21.1°
Sets 20:46:58 0° 199° (SSW) 3,006 ? -21.4°
